This is the latest recevied weather packets stored in our database for station/object KC3BHK-2. If no packets are shown the sender has not sent any weather packets the latest 10 day(s).
| Time | Temp. | Humidity | Pressure | Rain* | Wind** | Luminosity | Snow |
|---|---|---|---|---|---|---|---|
| 1778022270 | 25.56° C | - | - | 0 mm | 5.81 m/s, 174° | - | - |
| 1778021966 | 26.11° C | - | - | 0 mm | 4.92 m/s, 173° | - | - |
| 1778021661 | 26.67° C | - | - | 0 mm | 4.47 m/s, 127° | - | - |
| 1778021357 | 27.78° C | - | - | 0 mm | 4.02 m/s, 127° | - | - |
| 1778021052 | 26.67° C | - | - | 0 mm | 3.58 m/s, 159° | - | - |
| 1778020748 | 26.67° C | - | - | 0 mm | 4.47 m/s, 153° | - | - |
| 1778020440 | 26.67° C | - | - | 0 mm | 5.81 m/s, 198° | - | - |
| 1778020135 | 26.11° C | - | - | 0 mm | 5.81 m/s, 115° | - | - |
| 1778019831 | 26.67° C | - | - | 0 mm | 6.26 m/s, 165° | - | - |
| 1778019526 | 26.67° C | - | - | 0 mm | 4.02 m/s, 160° | - | - |
| 1778019221 | 26.67° C | - | - | 0 mm | 4.02 m/s, 233° | - | - |
| 1778018917 | 26.67° C | - | - | 0 mm | 2.24 m/s, 221° | - | - |
| 1778018609 | 26.67° C | - | - | 0 mm | 6.71 m/s, 167° | - | - |
| 1778018305 | 27.22° C | - | - | 0 mm | 3.13 m/s, 167° | - | - |
| 1778018000 | 28.33° C | - | - | 0 mm | 2.68 m/s, 167° | - | - |
| 1778017695 | 27.78° C | - | - | 0 mm | 3.13 m/s, 208° | - | - |
| 1778017391 | 26.67° C | - | - | 0 mm | 3.58 m/s, 211° | - | - |
| 1778017086 | 26.67° C | - | - | 0 mm | 5.81 m/s, 136° | - | - |
| 1778016779 | 27.22° C | - | - | 0 mm | 3.58 m/s, 186° | - | - |
| 1778016474 | 26.67° C | - | - | 0 mm | 5.36 m/s, 173° | - | - |
| 1778016169 | 26.67° C | - | - | 0 mm | 5.81 m/s, 150° | - | - |
| 1778015864 | 26.67° C | - | - | 0 mm | 4.02 m/s, 214° | - | - |
| 1778015560 | 26.67° C | - | - | 0 mm | 6.71 m/s, 165° | - | - |
| 1778015255 | 27.78° C | - | - | 0 mm | 4.92 m/s, 156° | - | - |
| 1778014948 | 28.89° C | - | - | 0 mm | 5.36 m/s, 184° | - | - |
* Rain latest hour (hover to see other rain measurements)
** Current wind speed in m/s (hover to see current wind gust speed)